Date,TemperatureHighF,TemperatureAvgF,TemperatureLowF,DewpointHighF,DewpointAvgF,DewpointLowF,HumidityHigh,HumidityAvg,HumidityLow,PressureMaxIn,PressureMinIn,WindSpeedMaxMPH,WindSpeedAvgMPH,GustSpeedMaxMPH,PrecipitationSumIn
2013-5-1,76,62,45,57,49,39,98,67,33,30.27,30.15,12,2,13,0.00
2013-5-2,76,55,40,52,42,37,95,66,28,30.32,30.20,11,1,11,0.00
2013-5-3,74,60,41,49,43,38,96,57,32,30.21,30.10,7,3,21,0.00
2013-5-4,70,58,42,46,40,29,78,51,33,30.17,30.04,7,3,21,0.00
2013-5-5,72,59,41,44,36,24,91,48,18,30.11,29.97,8,3,21,0.00
2013-5-6,69,58,42,56,51,38,91,77,57,30.04,29.95,10,2,20,0.02
2013-5-7,64,60,56,60,57,53,95,89,85,29.98,29.89,10,2,11,0.24
2013-5-8,73,61,50,58,53,49,99,77,45,29.95,29.84,12,1,12,0.38
2013-5-9,77,63,52,62,55,50,98,79,40,29.97,29.88,17,2,17,0.02
2013-5-10,77,62,53,66,58,52,98,90,63,29.97,29.78,29,1,29,0.53
2013-5-11,61,59,51,60,56,48,97,91,80,29.82,29.74,14,2,14,0.17
2013-5-12,54,48,41,50,37,30,92,67,44,30.06,29.80,23,5,26,0.01
2013-5-13,53,44,31,39,32,28,96,67,44,30.14,30.05,20,3,21,0.00
2013-5-14,63,53,28,47,41,27,98,65,45,30.20,29.89,14,1,14,0.01
2013-5-15,86,71,48,66,58,43,88,65,47,29.89,29.67,28,4,28,0.00
2013-5-16,77,68,57,67,61,55,99,80,55,29.94,29.73,16,2,16,0.40
2013-5-17,81,69,56,66,60,54,99,74,46,30.06,29.93,10,0,10,0.00
2013-5-18,81,65,50,67,59,50,99,82,55,30.08,29.97,15,1,16,0.00
2013-5-19,80,69,57,68,63,56,98,82,63,30.06,29.91,11,1,11,0.00
2013-5-20,86,72,58,72,65,57,99,81,56,30.00,29.86,9,0,9,0.00
2013-5-21,86,74,60,73,67,60,99,80,57,29.92,29.78,14,1,14,0.00
2013-5-22,86,72,64,71,64,61,96,79,55,29.85,29.73,20,1,20,0.42
2013-5-23,77,66,55,67,62,53,99,91,62,29.84,29.74,20,1,20,0.80
2013-5-24,54,46,38,53,41,34,95,82,63,30.29,29.84,20,4,20,0.02
2013-5-25,62,46,31,46,37,30,98,73,43,30.34,30.21,18,2,18,0.00
2013-5-26,67,50,32,46,40,31,98,71,40,30.30,30.19,14,1,14,0.00
2013-5-27,66,52,37,54,46,36,98,83,51,30.26,30.08,6,0,6,0.01
2013-5-28,81,66,54,71,61,52,98,83,58,30.08,29.96,29,1,29,0.17
2013-5-29,85,73,63,69,63,59,92,71,48,30.06,29.98,21,2,21,0.00
2013-5-30,88,73,57,72,65,56,99,78,52,30.15,30.02,10,0,10,0.00
2013-5-31,88,74,60,72,65,59,99,76,48,30.08,29.93,13,1,13,0.00